Minsk International Airport

Airport
ICAO code: 
UMMS
IATA Code: 
MSQ
Summary
ICAO Region: 
EUR
Territory: 
Location: 
Vykacheno, Smalyavichy Raion
Serving: 
Minsk
Elevation: 
669 ft
Coordinates: 
Aerial View: 
53° 53' 18.78" N, 28° 2' 9.24" E
Metar
Observation
UMMS 200241Z 20007G10MPS 5000 BR OVC004 M01/M02 Q1003 NOSIG RMK QBB140
Station
Minsk
Date/Time
2022-01-20 02:41:00
Wind direction
200°
Lowest cloud amount
overcast
Temperature
-1°C
Dew point
-2°C
Humidity
92%
QNH
1003 hPa
Weather condition
n/a

Minsk National Airport (formerly known as Minsk-2) is the main international airport in Belarus, located 25nm to the east of the capital Minsk.

Climatology

Humid Continental climate (Köppen climate classification Dfb)

Runways

Designator Length Width Surface Rops
13/31 3641 60 CON Yes/Yes
Airport map: 
Aerial View: 

SKYbrary Partners:

Safety knowledge contributed by: